記事タイトル:Comet P/2004 DO29 (Spacewatch-LINEAR) 

最新の情報は「更新」や「再読み込み」ボタンを押してリロードしてご覧ください。

書き込み欄へ  ヘルプ
お名前: 佐藤 裕久   
SpacewatchとLINEARサーベイによって2月17日UT、小惑星状の天体として発見された
2004 DO29が、3月16.3-16.6日UT、S. S. Sheppard、 Y. R. FernandezとD. Jewittに
より、ハワイ大学の2.2-m反射鏡で得たCCD画像から、5″の中央集光のあるコマと、p.a. 
220-270°に15″の尾がある彗星であることがわかった。

発見位置は次のとおり、

     2004 UT             R.A. (2000) Decl.       Mag.   Observer
     Feb. 17.21711   10 47 22.60   +10 49 35.4   19.8   Spacewatch
          17.27872   10 47 20.87   +10 49 56.9   19.4   LINEAR

軌道要素と位置推算表は次のとおり、

Orbital elements:
    P/2004 DO29 (Spacewatch-LINEAR)
T 2004 Oct. 7.5747 TT                                   MPC
q   4.091407             (2000.0)            P               Q
n   0.0484032      Peri.   41.3922      -0.9759052      +0.1728991
a   7.456814       Node   147.8274      -0.1964405      -0.9617269
e   0.451320       Incl.   14.4752      +0.0949745      -0.2125729
P  20.4
From 32 observations 2004 Feb. 11-Mar. 16.

Ephemeris:
    P/2004 DO29 (Spacewatch-LINEAR)
Date    TT    R. A. (2000) Decl.     Delta      r     Elong.  Phase   m1    m2
2004 03 16    10 35.14   +13 16.0    3.309    4.254   159.4     4.7        19.6
2004 03 26    10 31.52   +13 58.9    3.357    4.239   148.5     7.1        19.8
2004 04 05    10 28.93   +14 32.8    3.429    4.225   137.9     9.1        19.9
2004 04 15    10 27.63   +14 56.4    3.523    4.211   127.7    10.9        20.0
2004 04 25    10 27.74   +15 09.4    3.633    4.198   117.9    12.2        20.1
2004 05 05    10 29.32   +15 12.0    3.755    4.186   108.6    13.2        20.3
2004 05 15    10 32.31   +15 04.8    3.884    4.174    99.6    13.8        20.3
2004 05 25    10 36.63   +14 48.6    4.019    4.164    91.1    14.1        20.4

(IAUC 8305、MPEC 2004-F09)
[2004年3月17日 21時27分46秒]

この記事への返信をどうぞ。
氏名
E-mail URL



記事一覧に戻る